Showing default

OPS 3367 A, 734

Orbit data source: Space-Track

OPS 3367 A, 734 is an American payload satellite in SSO that was launched on Sun, 19 Jan 1964 UTC via a THOR SLV-2 AGENA D launch vehicle from the Air Force Western Test Range (AFWTR). Payload-class satellites include a variety of spacecraft equipped with specific instruments for various scientific and technological missions. These include communications satellites like Starlink; space stations such as the ISS; scientific satellites like the Hubble; Earth observation satellites from companies like Planet Labs, Umbra, and HawkEye 360; GPS; miniature CubeSats for education and research; and military/defense satellites.

Loading next visibility...
Identifier
734, 1964-002B
Orbit
SSO
Country
Flag of USUS
Related business
Manufacturer
RCA/East Windsor
Mission
Spacecraft
Bus & Motor
P35, Unknown motor
Mass
50 kg wet, 50 kg dry
Launch date (UTC)
1964-01-19 (62 years ago)
Launch vehicle
THOR SLV-2 AGENA D
Launch site
Air Force Western Test Range (AFWTR)
Object type
Payload
Rocket body
Debris
Shape & HBR
Unknown
Radar Cross Section
Medium (>0.1 m² and <1 m²)

Expand to show TLE details & history
Last TLE update: 13 hours ago

TLE from 13 hours ago
0 OPS 3367 A
1 00734U 64002B   25346.72987594  .00000255  00000-0  11771-3 0  9999
2 00734  98.9722 266.2359 0014721  12.0071 348.1458 14.29634590222127
Epoch: 2025-12-12T17:31Z
TLE epoch observation values (Epoch: 2025-12-12T17:31:01.281Z)
Latitude
-0.00002°
Longitude
-78.18675°
Altitude
785.539 km
Speed
7.466 km/s
True Right ascension
17h 44m 56s
True Declination
0° 00' 00"
Sunlit
Object was in daylight at epoch
Visualization orbit readout
Latitude
Unknown
Longitude
Unknown
Altitude
Unknown
Speed
Unknown
Apparent Right ascension
Unknown
Apparent Declination
Unknown
Sunlit
N/A
Visualization observer readout
Local Sidereal Time
05:21:59
Azimuth
Unknown
Elevation
Unknown
Doppler factor
Unknown
Orbital elements
Apogee altitude
800.663 km
Perigee altitude
779.559 km
Semi-major axis
7,168.248 km
Eccentricity
0.00147
Inclination
98.9722°
RAAN
266.2359°
Arg. of periapsis
12.0071°
True anomaly
348.11108°
Mean anomaly
348.1458°
Eccentric anomaly
348.12845°
Mean motion
3.57622 °/min
Orbital period
100.67 mins
BSTAR
0.00011771
Loading maneuver chart data...
Computing Atmospheric mass density...
Loading historical data...
Loading historical data...
Loading historical data...
Loading historical data...
Loading historical data...
Loading historical data...
Loading historical data...
Other satellites on launch #2 in the year 1964 (1964-01-19 UTC)

Documentation

Showing up to 5 results
|